| time (UTC) | temp C | wind direction | speed KPH | gust KPH | rain 1hr cm | rain 24hr cm | rain mn cm | humidity % | barometer mb |
| 20260508060451 | 12 | 248 | 6.4 | 6.4 | 0.00 | 2.31 | 0.00 | 86 | 1015.0 |
| 20260508055448 | 12 | 256 | 4.8 | 9.7 | 0.00 | 2.31 | 0.00 | 87 | 1014.9 |
| 20260508054446 | 12 | 287 | 3.2 | 3.2 | 0.00 | 2.31 | 0.00 | 87 | 1014.8 |
| 20260508053442 | 12 | 270 | 4.8 | 6.4 | 0.00 | 2.31 | 0.00 | 88 | 1014.5 |
| 20260508052438 | 11 | 283 | 4.8 | 9.7 | 0.00 | 2.31 | 0.00 | 88 | 1014.6 |
| 20260508051435 | 11 | 276 | 4.8 | 6.4 | 0.00 | 2.31 | 0.00 | 89 | 1014.4 |
| 20260508050432 | 11 | 255 | 4.8 | 9.7 | 0.00 | 2.31 | 0.00 | 89 | 1014.1 |
| 20260508045429 | 11 | 246 | 6.4 | 9.7 | 0.00 | 2.31 | 0.00 | 89 | 1014.2 |
| 20260508044425 | 11 | 248 | 8.0 | 12.9 | 0.00 | 2.31 | 0.00 | 89 | 1014.2 |
| 20260508043424 | 11 | 255 | 4.8 | 6.4 | 0.00 | 2.31 | 0.00 | 89 | 1014.0 |
| 20260508042419 | 12 | 270 | 3.2 | 6.4 | 0.00 | 2.31 | 0.00 | 89 | 1013.9 |
| 20260508041416 | 11 | 270 | 1.6 | 3.2 | 0.00 | 2.31 | 0.00 | 90 | 1014.0 |
| 20260508040514 | 12 | 270 | 1.6 | 3.2 | 0.00 | 2.31 | 0.00 | 90 | 1013.9 |
| 20260508035511 | 12 | 270 | 1.6 | 6.4 | 0.00 | 2.31 | 0.00 | 90 | 1013.9 |
| 20260508034506 | 12 | 270 | 4.8 | 9.7 | 0.00 | 2.31 | 0.00 | 90 | 1013.8 |
| 20260508033503 | 12 | 280 | 6.4 | 9.7 | 0.00 | 2.31 | 0.00 | 90 | 1014.0 |
| 20260508032500 | 12 | 284 | 4.8 | 6.4 | 0.00 | 2.31 | 0.00 | 90 | 1014.0 |
| 20260508031456 | 12 | 261 | 4.8 | 6.4 | 0.00 | 2.31 | 0.00 | 90 | 1014.2 |
| 20260508030454 | 12 | 257 | 4.8 | 6.4 | 0.00 | 2.31 | 0.00 | 90 | 1014.3 |
| 20260508025450 | 12 | 234 | 3.2 | 3.2 | 0.00 | 2.31 | 0.00 | 90 | 1014.3 |
| 20260508024447 | 12 | 255 | 3.2 | 3.2 | 0.00 | 2.31 | 0.00 | 90 | 1014.4 |
| 20260508023444 | 12 | 248 | 3.2 | 6.4 | 0.00 | 2.31 | 0.00 | 90 | 1014.6 |
| 20260508022501 | 12 | 0.0 | 0.0 | 0.00 | 2.31 | 0.00 | 90 | 1014.5 | |
| 20260508021438 | 12 | 270 | 0.0 | 3.2 | 0.00 | 2.31 | 0.00 | 90 | 1014.3 |
| 20260508020434 | 12 | 255 | 3.2 | 6.4 | 0.00 | 2.31 | 0.00 | 90 | 1014.5 |
| 20260508015431 | 12 | 253 | 4.8 | 6.4 | 0.00 | 2.31 | 0.00 | 90 | 1014.6 |
| 20260508014448 | 12 | 270 | 4.8 | 9.7 | 0.00 | 2.31 | 0.00 | 90 | 1014.7 |
| 20260508013426 | 12 | 270 | 4.8 | 6.4 | 0.00 | 2.31 | 0.00 | 89 | 1014.7 |
| 20260508012423 | 13 | 270 | 3.2 | 6.4 | 0.00 | 2.31 | 0.00 | 89 | 1014.8 |
| 20260508011458 | 13 | 259 | 3.2 | 6.4 | 0.00 | 2.31 | 0.00 | 90 | 1015.0 |
| 20260508010415 | 12 | 276 | 3.2 | 6.4 | 0.00 | 2.31 | 0.00 | 91 | 1015.0 |
| 20260508005532 | 12 | 270 | 6.4 | 9.7 | 0.00 | 2.31 | 0.00 | 93 | 1015.1 |
| 20260508004509 | 12 | 270 | 1.6 | 3.2 | 0.00 | 2.31 | 0.00 | 94 | 1015.0 |
| 20260508003505 | 12 | 284 | 4.8 | 11.3 | 0.00 | 2.31 | 0.00 | 94 | 1015.2 |
| 20260508002502 | 12 | 263 | 6.4 | 6.4 | 0.00 | 2.31 | 0.00 | 95 | 1015.5 |
| 20260508001500 | 12 | 262 | 4.8 | 6.4 | 0.00 | 2.31 | 0.00 | 95 | 1015.5 |
| 20260508000517 | 12 | 248 | 4.8 | 6.4 | 0.00 | 2.31 | 0.00 | 95 | 1015.7 |
| 20260507235453 | 12 | 225 | 3.2 | 6.4 | 0.00 | 2.31 | 0.00 | 95 | 1015.5 |
| 20260507234449 | 12 | 255 | 4.8 | 6.4 | 0.00 | 2.31 | 0.00 | 95 | 1015.6 |
| 20260507233447 | 13 | 248 | 3.2 | 6.4 | 0.00 | 2.31 | 0.00 | 95 | 1015.6 |
| 20260507232443 | 13 | 270 | 3.2 | 6.4 | 0.00 | 2.31 | 0.00 | 95 | 1015.7 |
| 20260507231439 | 13 | 270 | 4.8 | 6.4 | 0.00 | 2.31 | 0.00 | 95 | 1015.8 |
| 20260507230436 | 13 | 248 | 3.2 | 6.4 | 0.00 | 2.31 | 0.00 | 95 | 1015.7 |
| 20260507225433 | 13 | 238 | 3.2 | 6.4 | 0.00 | 2.31 | 0.00 | 95 | 1015.9 |
| 20260507224430 | 13 | 293 | 3.2 | 6.4 | 0.00 | 2.31 | 0.00 | 95 | 1016.0 |
| 20260507223427 | 13 | 293 | 1.6 | 3.2 | 0.00 | 2.31 | 0.00 | 95 | 1016.0 |
| 20260507222423 | 13 | 259 | 3.2 | 9.7 | 0.00 | 2.31 | 0.00 | 95 | 1016.1 |
| 20260507221420 | 13 | 270 | 3.2 | 6.4 | 0.00 | 2.31 | 0.00 | 95 | 1016.0 |
| 20260507220417 | 13 | 253 | 4.8 | 6.4 | 0.00 | 2.31 | 0.00 | 95 | 1016.1 |
| 20260507215514 | 13 | 256 | 4.8 | 9.7 | 0.00 | 2.31 | 2.31 | 95 | 1016.0 |
| 20260507214510 | 13 | 248 | 4.8 | 9.7 | 0.00 | 2.31 | 2.31 | 95 | 1015.9 |
| 20260507213508 | 13 | 263 | 6.4 | 9.7 | 0.00 | 2.31 | 2.31 | 95 | 1015.9 |
| 20260507212544 | 13 | 255 | 4.8 | 9.7 | 0.00 | 2.31 | 2.31 | 95 | 1015.8 |
| 20260507211501 | 13 | 248 | 3.2 | 9.7 | 0.00 | 2.31 | 2.31 | 94 | 1015.7 |
| 20260507210459 | 13 | 248 | 4.8 | 6.4 | 0.00 | 2.31 | 2.31 | 94 | 1015.6 |
| 20260507205515 | 13 | 274 | 3.2 | 6.4 | 0.00 | 2.31 | 2.31 | 94 | 1015.4 |
| 20260507204452 | 13 | 327 | 1.6 | 3.2 | 0.00 | 2.31 | 2.31 | 94 | 1015.3 |
| 20260507203449 | 14 | 338 | 1.6 | 3.2 | 0.00 | 2.31 | 2.31 | 94 | 1015.2 |
| 20260507202445 | 14 | 0.0 | 0.0 | 0.00 | 2.31 | 2.31 | 93 | 1015.2 | |
| 20260507201441 | 14 | 0.0 | 0.0 | 0.03 | 2.31 | 2.31 | 93 | 1015.2 | |
| 20260507200438 | 13 | 0.0 | 0.0 | 0.13 | 2.31 | 2.31 | 93 | 1015.1 | |
| 20260507195436 | 14 | 0.0 | 3.2 | 0.15 | 2.31 | 2.31 | 93 | 1015.0 | |
| 20260507194452 | 14 | 0.0 | 3.2 | 0.18 | 2.31 | 2.31 | 93 | 1015.0 | |
| 20260507193428 | 13 | 0.0 | 0.0 | 0.30 | 2.31 | 2.31 | 93 | 1014.9 | |
| 20260507192425 | 13 | 0.0 | 0.0 | 0.30 | 2.31 | 2.31 | 92 | 1014.9 | |
| 20260507191422 | 13 | 0.0 | 3.2 | 0.38 | 2.29 | 2.29 | 92 | 1014.9 | |
| 20260507190419 | 13 | 315 | 0.0 | 3.2 | 0.48 | 2.18 | 2.18 | 91 | 1015.0 |
| 20260507185416 | 13 | 12 | 1.6 | 6.4 | 0.69 | 2.16 | 2.16 | 91 | 1015.3 |
| 20260507184513 | 13 | 300 | 4.8 | 9.7 | 1.60 | 2.13 | 2.13 | 90 | 1015.1 |
| 20260507183509 | 13 | 306 | 4.8 | 6.4 | 2.01 | 2.01 | 2.01 | 90 | 1015.0 |
| 20260507182526 | 13 | 293 | 6.4 | 12.9 | 2.01 | 2.01 | 2.01 | 90 | 1015.1 |
| 20260507181503 | 13 | 263 | 6.4 | 9.7 | 1.88 | 1.88 | 1.88 | 89 | 1014.9 |
| 20260507180500 | 14 | 302 | 8.0 | 14.5 | 1.70 | 1.70 | 1.70 | 88 | 1015.0 |
| 20260507175456 | 14 | 328 | 3.2 | 6.4 | 1.47 | 1.47 | 1.47 | 86 | 1014.9 |
| 20260507174454 | 16 | 24 | 4.8 | 9.7 | 0.53 | 0.53 | 0.53 | 79 | 1014.9 |
| 20260507173450 | 17 | 83 | 4.8 | 9.7 | 0.00 | 0.00 | 0.00 | 67 | 1014.5 |
| 20260507172609 | 17 | 301 | 6.4 | 17.7 | 0.00 | 0.00 | 0.00 | 67 | 1014.5 |
| 20260507171505 | 18 | 45 | 4.8 | 9.7 | 0.00 | 0.00 | 0.00 | 75 | 1014.3 |
| 20260507170440 | 18 | 68 | 1.6 | 3.2 | 0.00 | 0.00 | 0.00 | 75 | 1014.1 |
| 20260507165438 | 18 | 60 | 4.8 | 11.3 | 0.00 | 0.00 | 0.00 | 74 | 1014.0 |
| 20260507164434 | 18 | 58 | 3.2 | 6.4 | 0.00 | 0.00 | 0.00 | 74 | 1014.0 |
| 20260507163432 | 18 | 68 | 1.6 | 6.4 | 0.00 | 0.00 | 0.00 | 74 | 1013.8 |
| 20260507162427 | 18 | 68 | 6.4 | 11.3 | 0.00 | 0.00 | 0.00 | 73 | 1013.7 |
| 20260507161445 | 18 | 45 | 8.0 | 12.9 | 0.00 | 0.00 | 0.00 | 74 | 1013.4 |
| 20260507160441 | 18 | 45 | 6.4 | 12.9 | 0.00 | 0.00 | 0.00 | 75 | 1013.4 |
| 20260507155417 | 18 | 60 | 4.8 | 11.3 | 0.00 | 0.00 | 0.00 | 74 | 1013.4 |
| 20260507154514 | 18 | 59 | 4.8 | 9.7 | 0.00 | 0.00 | 0.00 | 72 | 1013.4 |
| 20260507153511 | 18 | 53 | 9.7 | 17.7 | 0.00 | 0.00 | 0.00 | 73 | 1013.5 |
| 20260507152508 | 18 | 80 | 11.3 | 17.7 | 0.00 | 0.00 | 0.00 | 73 | 1013.4 |
| 20260507151505 | 18 | 83 | 14.5 | 22.5 | 0.00 | 0.00 | 0.00 | 71 | 1013.4 |
| 20260507150502 | 18 | 73 | 17.7 | 22.5 | 0.00 | 0.00 | 0.00 | 75 | 1013.5 |
| 20260507145458 | 18 | 76 | 14.5 | 20.9 | 0.00 | 0.00 | 0.00 | 76 | 1013.5 |
| 20260507144457 | 18 | 81 | 16.1 | 24.1 | 0.00 | 0.00 | 0.00 | 75 | 1013.6 |
| 20260507143452 | 18 | 99 | 12.9 | 20.9 | 0.00 | 0.00 | 0.00 | 75 | 1013.6 |
| 20260507142450 | 19 | 69 | 6.4 | 17.7 | 0.00 | 0.00 | 0.00 | 76 | 1013.8 |
| 20260507141446 | 18 | 45 | 9.7 | 20.9 | 0.00 | 0.00 | 0.00 | 75 | 1013.9 |
| 20260507140442 | 19 | 57 | 8.0 | 22.5 | 0.00 | 0.00 | 0.00 | 74 | 1013.9 |
| 20260507135440 | 19 | 45 | 12.9 | 24.1 | 0.00 | 0.00 | 0.00 | 72 | 1013.9 |
| 20260507134436 | 19 | 74 | 9.7 | 17.7 | 0.00 | 0.00 | 0.00 | 72 | 1013.9 |
| 20260507133433 | 19 | 45 | 8.0 | 14.5 | 0.00 | 0.00 | 0.00 | 72 | 1014.0 |
| 20260507132430 | 20 | 99 | 12.9 | 27.4 | 0.00 | 0.00 | 0.00 | 67 | 1014.1 |
| 20260507131426 | 20 | 51 | 9.7 | 17.7 | 0.00 | 0.00 | 0.00 | 62 | 1014.0 |
| 20260507130423 | 19 | 65 | 6.4 | 14.5 | 0.00 | 0.00 | 0.00 | 63 | 1014.2 |
| 20260507125420 | 20 | 58 | 8.0 | 27.4 | 0.00 | 0.00 | 0.00 | 65 | 1014.2 |
| 20260507124517 | 18 | 60 | 12.9 | 20.9 | 0.00 | 0.00 | 0.00 | 67 | 1014.4 |
| 20260507123513 | 18 | 28 | 4.8 | 6.4 | 0.00 | 0.00 | 0.00 | 66 | 1014.4 |
| 20260507122530 | 18 | 60 | 6.4 | 12.9 | 0.00 | 0.00 | 0.00 | 70 | 1014.4 |
| 20260507121507 | 18 | 41 | 6.4 | 9.7 | 0.00 | 0.00 | 0.00 | 73 | 1014.6 |
| 20260507120504 | 17 | 45 | 8.0 | 14.5 | 0.00 | 0.00 | 0.00 | 76 | 1014.7 |
| 20260507115501 | 17 | 45 | 4.8 | 11.3 | 0.00 | 0.00 | 0.00 | 77 | 1015.0 |
| 20260507114457 | 17 | 96 | 11.3 | 17.7 | 0.00 | 0.00 | 0.00 | 76 | 1015.1 |
| 20260507113454 | 17 | 23 | 6.4 | 14.5 | 0.00 | 0.00 | 0.00 | 77 | 1015.1 |
| 20260507112451 | 17 | 29 | 8.0 | 17.7 | 0.00 | 0.00 | 0.00 | 76 | 1015.2 |
| 20260507111449 | 17 | 75 | 12.9 | 25.7 | 0.00 | 0.00 | 0.00 | 78 | 1015.5 |
| 20260507110444 | 18 | 30 | 6.4 | 14.5 | 0.00 | 0.00 | 0.00 | 78 | 1015.6 |
| 20260507105442 | 18 | 45 | 4.8 | 11.3 | 0.00 | 0.00 | 0.00 | 77 | 1015.6 |
| 20260507104438 | 18 | 45 | 4.8 | 6.4 | 0.00 | 0.00 | 0.00 | 69 | 1015.6 |
| 20260507103435 | 18 | 23 | 6.4 | 17.7 | 0.00 | 0.00 | 0.00 | 76 | 1015.5 |
| 20260507102433 | 18 | 68 | 9.7 | 20.9 | 0.00 | 0.00 | 0.00 | 76 | 1015.6 |
| 20260507101449 | 18 | 23 | 11.3 | 22.5 | 0.00 | 0.00 | 0.00 | 73 | 1015.6 |
| 20260507100426 | 20 | 45 | 9.7 | 22.5 | 0.00 | 0.00 | 0.00 | 66 | 1015.3 |
| 20260507095422 | 20 | 360 | 4.8 | 12.9 | 0.00 | 0.00 | 0.00 | 65 | 1015.4 |
| 20260507094419 | 19 | 94 | 9.7 | 17.7 | 0.00 | 0.00 | 0.00 | 69 | 1015.4 |
| 20260507093415 | 20 | 79 | 9.7 | 29.0 | 0.00 | 0.00 | 0.00 | 68 | 1015.5 |
| 20260507092512 | 20 | 86 | 4.8 | 11.3 | 0.00 | 0.00 | 0.00 | 68 | 1015.4 |
| 20260507091509 | 18 | 23 | 9.7 | 12.9 | 0.00 | 0.00 | 0.00 | 71 | 1015.4 |
| 20260507090526 | 18 | 63 | 8.0 | 17.7 | 0.00 | 0.00 | 0.00 | 71 | 1015.2 |
| 20260507085503 | 19 | 75 | 3.2 | 6.4 | 0.00 | 0.00 | 0.00 | 72 | 1015.2 |
| 20260507084501 | 18 | 45 | 6.4 | 14.5 | 0.00 | 0.00 | 0.00 | 73 | 1015.2 |
| 20260507083456 | 19 | 23 | 3.2 | 6.4 | 0.00 | 0.00 | 0.00 | 74 | 1015.2 |
| 20260507082453 | 18 | 62 | 4.8 | 12.9 | 0.00 | 0.00 | 0.00 | 75 | 1015.2 |
| 20260507081451 | 18 | 62 | 8.0 | 14.5 | 0.00 | 0.00 | 0.00 | 74 | 1015.2 |
| 20260507080448 | 18 | 33 | 4.8 | 9.7 | 0.00 | 0.00 | 0.00 | 72 | 1015.2 |
| 20260507075445 | 18 | 68 | 8.0 | 17.7 | 0.00 | 0.00 | 0.00 | 70 | 1015.2 |
| 20260507074441 | 17 | 31 | 1.6 | 6.4 | 0.00 | 0.00 | 0.00 | 68 | 1015.2 |
| 20260507073438 | 17 | 45 | 3.2 | 6.4 | 0.00 | 0.00 | 0.00 | 66 | 1015.2 |
| 20260507072434 | 18 | 68 | 1.6 | 3.2 | 0.00 | 0.00 | 0.00 | 64 | 1015.1 |
| 20260507071453 | 16 | 23 | 1.6 | 6.4 | 0.00 | 0.00 | 0.00 | 64 | 1015.0 |
| 20260507070427 | 17 | 58 | 3.2 | 9.7 | 0.00 | 0.00 | 0.00 | 63 | 1014.8 |
| 20260507065424 | 17 | 342 | 1.6 | 3.2 | 0.00 | 0.00 | 0.00 | 61 | 1014.8 |
| 20260507064421 | 17 | 270 | 0.0 | 3.2 | 0.00 | 0.00 | 0.00 | 63 | 1014.7 |
| 20260507063419 | 16 | 0.0 | 3.2 | 0.00 | 0.00 | 0.00 | 65 | 1014.7 | |
| 20260507062516 | 16 | 0.0 | 0.0 | 0.00 | 0.00 | 0.00 | 67 | 1014.6 | |
| 20260507061511 | 15 | 270 | 0.0 | 3.2 | 0.00 | 0.00 | 0.00 | 73 | 1014.6 |